{"data":{"norad_id":28649,"intl_designator":"2005-017A","name":"IRS-P5 (CARTOSAT-1)","alt_names":[],"object_type":"PAYLOAD","status":"ACTIVE","operator":null,"country":"IND","launch_date":"2005-05-05","launch_site_code":"SRILR","launch_vehicle":null,"mission":null,"orbit_class":"UNKNOWN","rcs_meters":4.6921,"size_class":null,"mass_kg":null,"dimensions":null,"purposes":["earth_obs"],"wikipedia_slug":null,"has_3d_model":false,"image_url":null,"decayed_at":null,"tle_current":{"epoch":"2026-09-19T07:00:28.768032Z","epoch_age_seconds":118794,"freshness":"FRESH","line1":"1 28649U 05017A   26262.29199963  .00000731  00000+0  78799-4 0  9992","line2":"2 28649  97.5291 281.0901 0002628  97.6377 262.5141 14.91246654157840","mean_motion":14.91246654,"eccentricity":0.0002628,"inclination_deg":97.5291,"raan_deg":281.0901,"arg_perigee_deg":97.6377,"mean_anomaly_deg":262.5141,"bstar":7.8799e-5,"rev_number":15784,"period_min":96.563502498896,"perigee_km":592.21492347552,"apogee_km":595.87950349813,"semimajor_km":6972.1842134868,"source":"CELESTRAK","updated_at":"2026-09-20T09:00:33.885139Z"}}}